Gulkana, AK

8:08 PM AKDT on April 26, 2017 (GMT -0800)
Gulkana

Weather History for PAGK - May, 2013

Change the Weather History Date:

Thursday, May 16, 2013

  Actual Average Record
Temperature  
Mean Temperature 40 °F -  
Max Temperature 46 °F 53 °F 76 °F (1993)
Min Temperature 33 °F 32 °F 20 °F (1992)
Degree Days  
Heating Degree Days 26    
Moisture  
Dew Point 26 °F    
Average Humidity 57    
Maximum Humidity 75    
Minimum Humidity 29    
Precipitation  
Precipitation 0.00 in - - ()
Snow  
Snow 0.00 in - - ()
Snow Depth 1.00 in    
Sea Level Pressure  
Sea Level Pressure 29.66 in    
Wind  
Wind Speed 16 mph (SSE)    
Max Wind Speed 25 mph    
Max Gust Speed 36 mph    
Visibility 10 miles    
Events      
Averages and records for this station are not official NWS values.
T = Trace of Precipitation, MM = Missing Value Source: NWS Daily Summary

Daily Weather History Graph

Daily Weather History Graph

Search for Another Location

Airport or City:

Trip Planner

Search our weather history database for the weather conditions in past years. The results will help you decide how hot, cold, wet, or windy it might be!

Date:

Astronomy

May. 16, 2013 Rise Set
Actual Time 4:42 AM AKDT 10:35 PM AKDT
Civil Twilight 3:23 AM AKDT 11:56 PM AKDT
Nautical Twilight Sun does not set Sun does not set
Astronomical Twilight Sun does not set Sun does not set
Moon 11:08 AM AKDT (5/16) 2:21 AM AKDT (5/16)
Length of Visible Light 20h 32m
Length of Day
17h 52m
Waxing Crescent, 37% of the Moon is Illuminated
May 16
Waxing Crescent
May 17
First Quarter
May 24
Full
May 31
Last Quarter
Jun 8
New

Hourly Weather History & Observations

Time (AKDT) Temp. Windchill Dew Point Humidity Pressure Visibility Wind Dir Wind Speed Gust Speed Precip Events Conditions
12:53 AM 34.0 °F 24.6 °F 26.1 °F 73% 29.80 in 10.0 mi SSE 13.8 mph - N/A   Partly Cloudy
1:53 AM 35.1 °F 25.5 °F 26.1 °F 70% 29.79 in 10.0 mi SSE 15.0 mph - N/A   Overcast
2:53 AM 34.0 °F 23.8 °F 25.0 °F 70% 29.78 in 10.0 mi SSE 16.1 mph - N/A   Overcast
3:53 AM 33.1 °F 23.4 °F 25.0 °F 72% 29.78 in 10.0 mi South 13.8 mph - N/A   Overcast
4:53 AM 33.1 °F 23.0 °F 26.1 °F 75% 29.77 in 10.0 mi SSE 15.0 mph 23.0 mph N/A   Mostly Cloudy
5:53 AM 33.1 °F 23.0 °F 26.1 °F 75% 29.76 in 10.0 mi SSE 15.0 mph 24.2 mph N/A   Overcast
6:53 AM 34.0 °F 25.0 °F 26.1 °F 73% 29.75 in 10.0 mi SSE 12.7 mph - N/A   Overcast
7:53 AM 34.0 °F 24.2 °F 26.1 °F 73% 29.75 in 10.0 mi SSE 15.0 mph - N/A   Overcast
8:53 AM 35.1 °F 25.2 °F 26.1 °F 70% 29.75 in 10.0 mi SSE 16.1 mph - N/A   Overcast
9:53 AM 36.0 °F 26.7 °F 26.1 °F 67% 29.74 in 10.0 mi SSE 15.0 mph - N/A   Overcast
10:53 AM 39.0 °F 30.6 °F 26.1 °F 60% 29.71 in 10.0 mi SSE 15.0 mph 24.2 mph N/A   Overcast
11:53 AM 42.1 °F 32.6 °F 24.1 °F 49% 29.69 in 10.0 mi SSE 23.0 mph 33.4 mph N/A   Overcast
12:53 PM 45.0 °F 37.6 °F 26.1 °F 48% 29.65 in 10.0 mi SE 17.3 mph 35.7 mph N/A   Overcast
1:53 PM 46.0 °F 37.6 °F 25.0 °F 44% 29.64 in 10.0 mi SSE 24.2 mph 35.7 mph N/A   Overcast
2:53 PM 46.0 °F 38.3 °F 24.1 °F 42% 29.62 in 10.0 mi SSE 20.7 mph 33.4 mph N/A   Overcast
3:53 PM 46.0 °F 37.4 °F 24.1 °F 42% 29.61 in 10.0 mi SSE 25.3 mph 33.4 mph N/A   Overcast
4:53 PM 46.9 °F - 26.1 °F 44% 29.60 in 10.0 mi SSE 25.3 mph 31.1 mph N/A   Overcast
5:53 PM 46.0 °F 38.8 °F 26.1 °F 46% 29.58 in 10.0 mi SSE 18.4 mph 32.2 mph N/A   Overcast
6:53 PM 46.0 °F 38.8 °F 26.1 °F 46% 29.57 in 10.0 mi SSE 18.4 mph 27.6 mph N/A   Overcast
7:53 PM 45.0 °F 38.5 °F 27.0 °F 49% 29.56 in 10.0 mi SSE 13.8 mph 27.6 mph N/A   Overcast
8:53 PM 43.0 °F 36.8 °F 27.0 °F 53% 29.55 in 10.0 mi SSE 11.5 mph - N/A   Overcast
9:27 PM 43.0 °F 36.4 °F 27.0 °F 53% 29.49 in 10.0 mi SSE 12.7 mph - N/A   Overcast
9:53 PM 43.0 °F 36.0 °F 27.0 °F 53% 29.54 in 10.0 mi SSE 13.8 mph - N/A   Overcast
10:53 PM 41.0 °F 35.2 °F 27.0 °F 57% 29.53 in 10.0 mi SE 9.2 mph - N/A   Clear
11:53 PM 39.0 °F 33.4 °F 27.0 °F 62% 29.51 in 10.0 mi SSE 8.1 mph - N/A   Partly Cloudy